FENGYUN 1C DEB, 29791

Orbit data source: Space-Track

FENGYUN 1C DEB, 29791 is space debris in SSO originally from a launch on Mon, 10 May 1999 UTC launched from the Taiyaun Space Center, China (TSC). Fengyun 1C debris stems from the Chinese weather satellite Fengyun-1C, which was intentionally destroyed by a Chinese anti-satellite missile in 2007. This event dramatically increased the amount of space debris, with thousands of trackable fragments posing hazards to satellites and human spaceflight. The Fengyun 1C debris cloud has become a focal point in discussions about space sustainability and the need for international regulations to prevent the creation of new debris.

Loading next visibility...
Identifier
29791, 1999-025CH
Orbit
SSO
Country
Flag of CNCN / PRC
Related business
Manufacturer
Unknown
Mission
Spacecraft
Bus & Motor
Unknown
Mass
Unknown
Launch date (UTC)
1999-05-10 (27 years ago)
Launch vehicle
Unknown
Launch site
Taiyaun Space Center, China (TSC)
Object type
Payload
Rocket body
Debris
Shape & HBR
Unknown shape, 0.2 m
Radar Cross Section
Medium (>0.1 m² and <1 m²)

Expand to show TLE details & history
Last TLE update: 21 hours ago

TLE from 21 hours ago
0 FENGYUN 1C DEB
1 29791U 99025CH  26206.57236477  .00005679  00000-0  11512-2 0  9999
2 29791  99.0307 232.1043 0040422  97.6807  63.7798 14.61161182 21264
Epoch: 2026-07-25T13:44Z
TLE epoch observation values (Epoch: 2026-07-25T13:44:12.316Z)
Latitude
17.88293°
Longitude
-94.30608°
Altitude
679.283 km
Speed
7.525 km/s
True Right ascension
03h 40m 06s
True Declination
17° 46' 54"
Sunlit
Object was in daylight at epoch
Visualization orbit readout
Latitude
Unknown
Longitude
Unknown
Altitude
Unknown
Speed
Unknown
Apparent Right ascension
Unknown
Apparent Declination
Unknown
Sunlit
N/A
Visualization observer readout
Local Sidereal Time
00:11:11
Azimuth
Unknown
Elevation
Unknown
Doppler factor
Unknown
Orbital elements
Apogee altitude
715.104 km
Perigee altitude
657.99 km
Semi-major axis
7,064.684 km
Eccentricity
0.00404
Inclination
99.0307°
RAAN
232.1043°
Arg. of periapsis
97.6807°
True anomaly
64.19627°
Mean anomaly
63.7798°
Eccentric anomaly
63.98794°
Mean motion
3.65514 °/min
Orbital period
98.49 mins
BSTAR
0.0011512
Loading maneuver chart data...
Computing Atmospheric mass density...

Documentation

Showing up to 5 results
|